Regional Weather Roundup
Issued by NWS Little Rock, AR

Home | Current Version | Previous Version | Graphics & Text | Print | Product List | Glossary On
Versions: 1 2 3 4 5 6 7 8 9 10 11 12 13 14 15 16 17 18 19 20 21 22 23 24 25 26 27 28 29 30 31 32 33 34 35 36 37 38 39 40 41 42 43 44 45 46 47 48 49 50
000
ASUS44 KLZK 291705
RWRLZK

WEATHER ROUNDUP FOR ARKANSAS
NATIONAL WEATHER SERVICE LITTLE ROCK AR
1100 AM CST THU JAN 29 2015

NOTE: "FAIR" INDICATES FEW OR NO CLOUDS BELOW 12,000 FEET WITH NO
SIGNIFICANT WEATHER AND/OR OBSTRUCTIONS TO VISIBILITY.

ARZ001-003-010-029-291800-
NORTHWEST ARKANSAS

CITY           SKY/WX    TMP DP  RH WIND       PRES   REMARKS
FAYETTEVILLE   CLOUDY    46  37  71 NW13      30.29R
FORT SMITH     MOSUNNY   55  36  48 NW18G25   30.27R
HARRISON       CLOUDY    45  37  73 NW15G24   30.24R
BENTONVILLE    CLOUDY    43  30  61 N14G21    30.31R
ROGERS         CLOUDY    42  33  70 NW16G26   30.31R
SILOAM SPGS    CLOUDY    43  28  56 N20G28    30.33R
HIGHFILL       CLOUDY    44  34  67 N20       30.30R
SPRINGDALE     CLOUDY    45  36  70 NW13G24   30.31R
$$

ARZ004-005-016-291800-
NORTH CENTRAL ARKANSAS

CITY           SKY/WX    TMP DP  RH WIND       PRES   REMARKS
BATESVILLE     PTSUNNY   57  39  51 NW9G20    30.14R
FLIPPIN        CLOUDY    48  34  57 NW14G20   30.22R
MTN HOME       CLOUDY    47  36  65 N9G21     30.20R
$$

ARZ040-041-291800-
WEST CENTRAL ARKANSAS

CITY           SKY/WX    TMP DP  RH WIND       PRES   REMARKS
MENA           PTSUNNY   61  37  41 N8        30.23R
MOUNT IDA      CLOUDY    60  35  39 NW10G23   30.18R
$$

ARZ009-017-025-026-028-291800-
NORTHEAST ARKANSAS

CITY           SKY/WX    TMP DP  RH WIND       PRES   REMARKS
CORNING        FAIR      55  41  58 NW18      30.13R
JONESBORO      MOSUNNY   57  41  55 NW16G26   30.11R
NEWPORT        PTSUNNY   61  40  45 NW18      30.14R
WALNUT RIDGE   MOSUNNY   55  37  50 NW23G31   30.12R
BLYTHEVILLE    SUNNY     60  43  53 NW16      30.10R
$$

ARZ022-023-033-042-044-291800-
CENTRAL ARKANSAS

CITY           SKY/WX    TMP DP  RH WIND       PRES   REMARKS
LITTLE ROCK    CLOUDY    63  40  42 NW14      30.15R
N LITTLE ROCK  PTSUNNY   60  45  58 NW7G17    30.15R
JACKSONVILLE   PTSUNNY   62  42  47 NW8       30.14R
SEARCY         PTSUNNY   62  39  42 NW13      30.15R
HOT SPRINGS    CLOUDY    62  39  42 NW9       30.17R
RUSSELLVILLE   MOSUNNY   60  38  43 NW13      30.18R
CLINTON        FAIR      57  39  51 N16G24    30.19R
$$

ARZ036-291800-
EAST ARKANSAS

CITY           SKY/WX    TMP DP  RH WIND       PRES   REMARKS
WEST MEMPHIS   MOSUNNY   60  47  61 VRB5      30.11R
$$

ARZ050-053-066-070-073-291800-
SOUTHWEST ARKANSAS

CITY           SKY/WX    TMP DP  RH WIND       PRES   REMARKS
ARKADELPHIA    FAIR      63  49  60 W6        30.19R
CAMDEN         LGT RAIN  66  45  45 MISG      30.18R
TEXARKANA      PTSUNNY   65  43  44 NW7       30.21R
EL DORADO      PTSUNNY   63  51  65 W12       30.19R
DE QUEEN       CLOUDY    62  39  42 N6        30.20R
$$

ARZ056-057-069-291800-
SOUTHEAST ARKANSAS

CITY           SKY/WX    TMP DP  RH WIND       PRES   REMARKS
PINE BLUFF     CLOUDY    62  46  55 W10       30.14R
STUTTGART      CLOUDY    63  46  55 W13       30.14R
MONTICELLO     MOSUNNY   64  49  57 W14       30.15R

$$





USA.gov is the U.S. government's official web portal to all federal, state and local government web resources and services.